{"data":{"norad_id":57445,"intl_designator":"2023-105R","name":"STARLINK-30215","alt_names":[],"object_type":"PAYLOAD","status":"ACTIVE","operator":null,"country":"US","launch_date":"2023-07-24","launch_site_code":"AFETR","launch_vehicle":null,"mission":null,"orbit_class":"UNKNOWN","rcs_meters":null,"size_class":null,"mass_kg":null,"dimensions":null,"purposes":["comms"],"wikipedia_slug":null,"has_3d_model":false,"image_url":null,"decayed_at":null,"tle_current":{"epoch":"2026-09-20T07:25:50.548512Z","epoch_age_seconds":144045,"freshness":"FRESH","line1":"1 57445U 23105R   26263.30961283  .00000474  00000+0  26752-4 0  9997","line2":"2 57445  43.0011 240.9751 0001036 272.3767  87.6966 15.27579324175187","mean_motion":15.27579324,"eccentricity":0.0001036,"inclination_deg":43.0011,"raan_deg":240.9751,"arg_perigee_deg":272.3767,"mean_anomaly_deg":87.6966,"bstar":2.6752e-5,"rev_number":17518,"period_min":94.266790429536,"perigee_km":482.34030113833,"apogee_km":483.76193931684,"semimajor_km":6861.1881202276,"source":"CELESTRAK","updated_at":"2026-09-21T09:00:33.627346Z"}}}